SM6KNE Weather Reports


Display with metric or nautical units.
time (UTC)temp
F
wind
direction
speed
MPH
gust
MPH
rain 1hr
in
rain 24hr
in
rain mn
in
humidity
%
barometer
mb
20260506095523 62 263 5.0 8.0 0.00 0.00 0.00 32 1013.1
20260506094527 61 293 2.0 6.0 0.00 0.00 0.00 32 1013.1
20260506093522 61 258 1.0 3.0 0.00 0.00 0.00 33 1013.1
20260506092543 60 283 3.0 8.0 0.00 0.00 0.00 34 1013.1
20260506091524 59 0.0 0.0 0.00 0.00 0.00 35 1013.1
20260506090522 58 23 0.0 1.0 0.00 0.00 0.00 36 1013.1
20260506085520 56 266 4.0 6.0 0.00 0.00 0.00 39 1013.1
20260506084523 55 248 1.0 4.0 0.00 0.00 0.00 40 1013.1
20260506083516 55 23 0.0 1.0 0.00 0.00 0.00 42 1013.1
20260506082524 53 0.0 0.0 0.00 0.00 0.00 44 1013.1
20260506081524 52 0.0 0.0 0.00 0.00 0.00 45 1013.1
20260506080517 51 229 1.0 4.0 0.00 0.00 0.00 48 1013.1
20260506073515 48 0.0 0.0 0.00 0.00 0.00 60 1013.1
20260506072528 47 0.0 0.0 0.00 0.00 0.00 63 1013.1
20260506071523 45 293 0.0 3.0 0.00 0.00 0.00 65 1013.1
20260506070524 43 0.0 0.0 0.00 0.00 0.00 68 1013.1
20260506061516 36 0.0 0.0 0.00 0.00 0.00 72 1013.1
20260506060523 35 0.0 0.0 0.00 0.00 0.00 72 1013.1
20260506050524 31 0.0 0.0 0.00 0.00 0.00 69 1014.1
20260506044523 29 0.0 0.0 0.00 0.00 0.00 68 1013.1
20260506043523 29 0.0 0.0 0.00 0.00 0.00 68 1014.1
20260506042521 28 0.0 0.0 0.00 0.00 0.00 67 1013.9
20260506041524 28 0.0 0.0 0.00 0.00 0.00 67 1013.1
20260506040523 27 0.0 0.0 0.00 0.00 0.00 66 1013.1
20260506035524 28 0.0 0.0 0.00 0.00 0.00 65 1013.1
20260506034524 28 0.0 0.0 0.00 0.00 0.00 65 1013.1
20260506033523 28 0.0 0.0 0.00 0.00 0.00 66 1013.1
20260506032523 28 0.0 0.0 0.00 0.00 0.00 65 1013.1
20260506031523 28 0.0 0.0 0.00 0.00 0.00 65 1013.1
20260506030521 28 0.0 0.0 0.00 0.00 0.00 65 1013.1
20260506025517 28 0.0 0.0 0.00 0.00 0.00 65 1013.1
20260506024604 28 0.0 0.0 0.00 0.00 0.00 65 1013.1
20260506023523 28 0.0 0.0 0.00 0.00 0.00 64 1013.1
20260506022523 28 0.0 0.0 0.00 0.00 0.00 64 1013.1
20260506021524 28 0.0 0.0 0.00 0.00 0.00 63 1013.1
20260506020543 29 0.0 0.0 0.00 0.00 0.00 62 1013.1
20260506015520 29 0.0 0.0 0.00 0.00 0.00 63 1013.1
20260506014544 29 0.0 0.0 0.00 0.00 0.00 63 1013.1
20260506013544 29 0.0 0.0 0.00 0.00 0.00 63 1013.1
20260506012548 29 0.0 0.0 0.00 0.00 0.00 62 1013.1
20260506011523 29 0.0 0.0 0.00 0.00 0.00 62 1013.1
20260506010524 30 0.0 0.0 0.00 0.00 0.00 61 1013.1
20260506005523 30 0.0 0.0 0.00 0.00 0.00 61 1013.1
20260506004520 30 0.0 0.0 0.00 0.00 0.00 61 1013.1
20260506003527 31 0.0 0.0 0.00 0.00 0.00 61 1013.1
20260506002523 31 0.0 0.0 0.00 0.00 0.00 60 1013.1
20260506001524 31 0.0 0.0 0.00 0.00 0.00 60 1013.1
20260506000523 31 0.0 0.0 0.00 0.00 0.00 60 1013.1
20260505235523 31 0.0 0.0 0.00 0.00 0.00 59 1013.1
20260505234517 31 0.0 0.0 0.00 0.00 0.00 59 1013.1
20260505233520 31 0.0 0.0 0.00 0.00 0.00 58 1013.1
20260505232525 32 0.0 0.0 0.00 0.00 0.00 58 1013.1
20260505231515 32 0.0 0.0 0.00 0.00 0.00 56 1013.1
20260505230523 33 0.0 0.0 0.00 0.00 0.00 56 1013.1
20260505225524 33 0.0 0.0 0.00 0.00 0.00 57 1013.1
20260505224523 33 0.0 0.0 0.00 0.00 0.00 56 1013.1
20260505223524 33 0.0 0.0 0.00 0.00 0.00 55 1013.1
20260505222520 34 0.0 0.0 0.00 0.00 0.00 54 1013.1
20260505221523 34 0.0 0.0 0.00 0.00 0.00 54 1013.1
20260505220523 35 0.0 0.0 0.00 0.00 0.00 53 1013.1
20260505215523 35 0.0 0.0 0.00 0.00 0.00 52 1013.1
20260505214544 36 90 0.0 1.0 0.00 0.00 0.00 52 1013.1
20260505213524 36 0.0 0.0 0.00 0.00 0.00 52 1013.1
20260505212524 37 0.0 0.0 0.00 0.00 0.00 51 1013.1
20260505211520 37 0.0 0.0 0.00 0.00 0.00 51 1013.1
20260505210525 37 0.0 0.0 0.00 0.00 0.00 49 1013.1
20260505205524 38 0.0 0.0 0.00 0.00 0.00 48 1013.1
20260505204527 39 0.0 0.0 0.00 0.00 0.00 47 1013.1
20260505203523 38 0.0 0.0 0.00 0.00 0.00 48 1013.1
20260505202524 40 0.0 0.0 0.00 0.00 0.00 47 1013.1
20260505201523 40 0.0 0.0 0.00 0.00 0.00 46 1013.1
20260505200520 40 0.0 0.0 0.00 0.00 0.00 44 1013.1
20260505195525 42 0.0 0.0 0.00 0.00 0.00 43 1013.1
20260505194523 42 0.0 0.0 0.00 0.00 0.00 41 1013.1
20260505193523 43 0.0 0.0 0.00 0.00 0.00 40 1012.1
20260505192524 44 0.0 0.0 0.00 0.00 0.00 37 1012.1
20260505191523 44 0.0 0.0 0.00 0.00 0.00 36 1012.1
20260505190523 45 0.0 0.0 0.00 0.00 0.00 35 1012.1
20260505185520 47 0.0 0.0 0.00 0.00 0.00 33 1012.1
20260505184524 47 248 1.0 3.0 0.00 0.00 0.00 32 1012.1
20260505183515 48 264 4.0 6.0 0.00 0.00 0.00 32 1012.1
20260505182523 49 256 5.0 6.0 0.00 0.00 0.00 32 1012.1
20260505181517 50 253 5.0 6.0 0.00 0.00 0.00 31 1012.1
20260505180543 51 265 6.0 8.0 0.00 0.00 0.00 30 1012.1
20260505175544 52 271 8.0 9.0 0.00 0.00 0.00 29 1012.1
20260505174520 52 256 8.0 9.0 0.00 0.00 0.00 27 1012.1
20260505173525 53 272 7.0 8.0 0.00 0.00 0.00 25 1012.1
20260505172524 55 259 7.0 8.0 0.00 0.00 0.00 23 1012.1
20260505171523 57 269 7.0 10.0 0.00 0.00 0.00 22 1012.1
20260505170523 58 271 7.0 9.0 0.00 0.00 0.00 22 1011.1
20260505165544 60 266 7.0 9.0 0.00 0.00 0.00 22 1011.2
20260505164523 61 260 5.0 8.0 0.00 0.00 0.00 21 1012.1
20260505163541 63 289 4.0 8.0 0.00 0.00 0.00 21 1012.1
20260505162524 64 290 4.0 6.0 0.00 0.00 0.00 20 1012.1
20260505161532 64 262 6.0 8.0 0.00 0.00 0.00 21 1012.1
20260505160526 65 289 7.0 11.0 0.00 0.00 0.00 23 1012.1
20260505152521 65 280 8.0 10.0 0.00 0.00 0.00 23 1012.1
20260505151524 66 267 6.0 8.0 0.00 0.00 0.00 23 1012.1
20260505150524 66 270 8.0 11.0 0.00 0.00 0.00 23 1012.1
20260505140525 67 282 10.0 12.0 0.00 0.00 0.00 21 1011.1
20260505124544 64 275 13.0 15.0 0.00 0.00 0.00 27 1011.1
20260505123624 66 267 12.0 15.0 0.00 0.00 0.00 27 1011.1
20260505122523 66 254 11.0 14.0 0.00 0.00 0.00 28 1011.1
20260505121544 65 277 10.0 14.0 0.00 0.00 0.00 28 1011.1
20260505120523 65 265 14.0 18.0 0.00 0.00 0.00 27 1011.1
20260505115526 65 256 8.0 10.0 0.00 0.00 0.00 28 1011.1
20260505114523 65 262 10.0 13.0 0.00 0.00 0.00 29 1011.1
20260505113523 63 263 10.0 15.0 0.00 0.00 0.00 31 1011.1
20260505112526 63 267 11.0 15.0 0.00 0.00 0.00 31 1011.1
20260505111524 62 270 11.0 13.0 0.00 0.00 0.00 30 1011.1
20260505110544 62 284 10.0 13.0 0.00 0.00 0.00 31 1011.1
20260505101604 58 284 11.0 15.0 0.00 0.00 0.00 33 1011.1
20260505100543 58 275 11.0 13.0 0.00 0.00 0.00 33 1011.1